{"data":{"norad_id":67799,"intl_designator":"2026-032C","name":"STARLINK-36804","alt_names":[],"object_type":"PAYLOAD","status":"ACTIVE","operator":null,"country":"US","launch_date":"2026-02-15","launch_site_code":"AFWTR","launch_vehicle":null,"mission":null,"orbit_class":"UNKNOWN","rcs_meters":null,"size_class":null,"mass_kg":null,"dimensions":null,"purposes":["comms"],"wikipedia_slug":null,"has_3d_model":false,"image_url":null,"decayed_at":null,"tle_current":{"epoch":"2026-05-25T01:59:44.873664Z","epoch_age_seconds":64531,"freshness":"FRESH","line1":"1 67799U 26032C   26145.08315826  .00018569  00000+0  57603-3 0  9994","line2":"2 67799  97.2857 333.1081 0001987  77.9357 282.2109 15.33447230 16665","mean_motion":15.3344723,"eccentricity":0.0001987,"inclination_deg":97.2857,"raan_deg":333.1081,"arg_perigee_deg":77.9357,"mean_anomaly_deg":282.2109,"bstar":0.00057603,"rev_number":1666,"period_min":93.906068094694,"perigee_km":464.1767016428,"apogee_km":466.89637750742,"semimajor_km":6843.6735395751,"source":"CELESTRAK","updated_at":"2026-05-25T13:38:21.692168Z"}}}